Ankeny, IA

1:09 AM CDT on August 17, 2017 (GMT -0500)
Ankeny Regional

Weather History for KIKV - May, 2012

Change the Weather History Date:

Wednesday, May 2, 2012

  Actual Average (KDSM) Record (KDSM)
Temperature  
Mean Temperature 69 °F -  
Max Temperature 78 °F 67 °F 90 °F (1952)
Min Temperature 60 °F 44 °F 30 °F (1967)
Cooling Degree Days 4    
Growing Degree Days 19 (Base 50)    
Moisture  
Dew Point 64 °F    
Average Humidity 78    
Maximum Humidity 88    
Minimum Humidity 65    
Precipitation  
Precipitation 0.64 in - - ()
Sea Level Pressure  
Sea Level Pressure 29.76 in    
Wind  
Wind Speed 9 mph (SSE)    
Max Wind Speed 18 mph    
Max Gust Speed 25 mph    
Visibility 10 miles    
Events Rain    
Averages and records for this station are not official NWS values.
T = Trace of Precipitation, MM = Missing Value Source: NWS Daily Summary

Daily Weather History Graph

Daily Weather History Graph

Search for Another Location

Airport or City:

Trip Planner

Search our weather history database for the weather conditions in past years. The results will help you decide how hot, cold, wet, or windy it might be!

Date:

Astronomy

May. 02, 2012 Rise Set
Actual Time 6:08 AM CDT 8:14 PM CDT
Civil Twilight 5:38 AM CDT 8:44 PM CDT
Nautical Twilight 5:01 AM CDT 9:22 PM CDT
Astronomical Twilight 4:20 AM CDT 10:02 PM CDT
Moon 4:24 PM CDT (5/2) 3:42 AM CDT (5/2)
Length of Visible Light 15h 06m
Length of Day
14h 05m
Waxing Gibbous, 83% of the Moon is Illuminated
May 2
Waxing Gibbous
May 5
Full
May 12
Last Quarter
May 20
New
May 28
First Quarter

Hourly Weather History & Observations

Time (CDT) Temp. Dew Point Humidity Pressure Visibility Wind Dir Wind Speed Gust Speed Precip Events Conditions
12:15 AM 71.6 °F 64.4 °F 78% 29.64 in 10.0 mi SSE 11.5 mph - N/A   Mostly Cloudy
12:35 AM 71.6 °F 64.4 °F 78% 29.63 in 10.0 mi SSE 10.4 mph - N/A   Scattered Clouds
12:55 AM 71.6 °F 66.2 °F 83% 29.62 in 10.0 mi SSE 11.5 mph - N/A   Scattered Clouds
1:15 AM 71.6 °F 66.2 °F 83% 29.63 in 10.0 mi SSE 10.4 mph - N/A   Mostly Cloudy
1:35 AM 73.4 °F 66.2 °F 78% 29.64 in 10.0 mi South 9.2 mph - N/A   Scattered Clouds
2:15 AM 75.2 °F 66.2 °F 73% 29.67 in 10.0 mi SW 15.0 mph 25.3 mph N/A   Scattered Clouds
2:35 AM 64.4 °F 57.2 °F 77% 29.75 in 7.0 mi NW 16.1 mph 20.7 mph 0.02 in Rain Rain
2:55 AM 62.6 °F 57.2 °F 82% 29.74 in 7.0 mi NNW 6.9 mph - 0.40 in Rain Rain
3:15 AM 62.6 °F 57.2 °F 82% 29.73 in 10.0 mi WNW 5.8 mph - 0.01 in Rain Light Rain
3:35 AM 60.8 °F 57.2 °F 88% 29.72 in 10.0 mi ENE 6.9 mph - 0.05 in Rain Rain
3:55 AM 60.8 °F 57.2 °F 88% 29.74 in 10.0 mi East 5.8 mph - 0.09 in Rain Rain
4:15 AM 62.6 °F 57.2 °F 82% 29.79 in 10.0 mi Calm Calm - 0.05 in Rain Rain
4:35 AM 60.8 °F 57.2 °F 88% 29.79 in 10.0 mi Calm Calm - 0.08 in Rain Light Rain
4:55 AM 60.8 °F 57.2 °F 88% 29.78 in 10.0 mi East 3.5 mph - 0.10 in Rain Light Rain
5:15 AM 60.8 °F 57.2 °F 88% 29.75 in 10.0 mi SE 10.4 mph - 0.01 in Rain Light Rain
5:35 AM 62.6 °F 57.2 °F 82% 29.74 in 10.0 mi SE 12.7 mph - 0.01 in   Drizzle
5:55 AM 62.6 °F 57.2 °F 82% 29.72 in 10.0 mi SSE 9.2 mph - 0.03 in Rain Light Rain
6:15 AM 62.6 °F 57.2 °F 82% 29.71 in 10.0 mi SSE 8.1 mph - 0.02 in Rain Light Rain
6:35 AM 62.6 °F 57.2 °F 82% 29.71 in 10.0 mi South 3.5 mph - 0.02 in   Scattered Clouds
6:55 AM 62.6 °F 57.2 °F 82% 29.72 in 10.0 mi Calm Calm - 0.02 in   Clear
7:15 AM 62.6 °F 57.2 °F 82% 29.74 in 10.0 mi South 5.8 mph - N/A   Clear
7:35 AM 62.6 °F 57.2 °F 82% 29.75 in 10.0 mi South 8.1 mph - N/A   Clear
7:55 AM 62.6 °F 57.2 °F 82% 29.76 in 10.0 mi SSE 6.9 mph - N/A   Clear
10:15 AM 68.0 °F 60.8 °F 78% 29.80 in 10.0 mi South 12.7 mph 19.6 mph N/A   Mostly Cloudy
10:35 AM 69.8 °F 62.6 °F 78% 29.79 in 10.0 mi South 11.5 mph 17.3 mph N/A   Mostly Cloudy
10:55 AM 71.6 °F 62.6 °F 73% 29.79 in 10.0 mi South 15.0 mph - N/A   Scattered Clouds
11:15 AM 69.8 °F 62.6 °F 78% 29.79 in 10.0 mi South 11.5 mph - N/A   Mostly Cloudy
11:35 AM 71.6 °F 62.6 °F 73% 29.80 in 10.0 mi South 15.0 mph 18.4 mph N/A   Mostly Cloudy
11:55 AM 73.4 °F 64.4 °F 73% 29.79 in 10.0 mi South 18.4 mph 23.0 mph N/A   Scattered Clouds
12:15 PM 73.4 °F 64.4 °F 73% 29.79 in 10.0 mi South 16.1 mph 20.7 mph N/A   Clear
12:35 PM 75.2 °F 64.4 °F 69% 29.79 in 10.0 mi South 18.4 mph 25.3 mph N/A   Clear
12:55 PM 75.2 °F 66.2 °F 73% 29.79 in 10.0 mi South 11.5 mph 21.9 mph N/A   Clear
1:15 PM 77.0 °F 66.2 °F 69% 29.79 in 10.0 mi South 17.3 mph 20.7 mph N/A   Scattered Clouds
1:35 PM 78.8 °F 66.2 °F 65% 29.78 in 10.0 mi South 13.8 mph - N/A   Mostly Cloudy
1:55 PM 78.8 °F 66.2 °F 65% 29.78 in 10.0 mi South 13.8 mph - N/A   Mostly Cloudy
2:15 PM 75.2 °F 66.2 °F 73% 29.78 in 10.0 mi South 12.7 mph 19.6 mph N/A   Overcast
2:35 PM 75.2 °F 66.2 °F 73% 29.78 in 10.0 mi South 15.0 mph 20.7 mph N/A   Overcast
2:55 PM 75.2 °F 66.2 °F 73% 29.79 in 10.0 mi South 12.7 mph 16.1 mph N/A   Overcast
3:15 PM 75.2 °F 66.2 °F 73% 29.78 in 10.0 mi South 9.2 mph - N/A   Overcast
3:35 PM 75.2 °F 66.2 °F 73% 29.78 in 10.0 mi South 11.5 mph - N/A   Overcast
3:55 PM 75.2 °F 66.2 °F 73% 29.78 in 10.0 mi SSE 5.8 mph - N/A   Overcast
4:15 PM 75.2 °F 66.2 °F 73% 29.78 in 10.0 mi SSE 4.6 mph - N/A   Overcast
4:35 PM 75.2 °F 66.2 °F 73% 29.77 in 10.0 mi SE 3.5 mph - N/A   Overcast
4:55 PM 77.0 °F 66.2 °F 69% 29.77 in 10.0 mi South 11.5 mph 17.3 mph N/A   Overcast
5:15 PM 77.0 °F 68.0 °F 74% 29.77 in 10.0 mi SSE 10.4 mph - N/A   Scattered Clouds
5:55 PM 75.2 °F 68.0 °F 78% 29.77 in 10.0 mi South 11.5 mph - N/A   Scattered Clouds
6:15 PM 75.2 °F 68.0 °F 78% 29.77 in 10.0 mi SSE 9.2 mph - N/A   Scattered Clouds
6:35 PM 75.2 °F 68.0 °F 78% 29.77 in 10.0 mi SSE 9.2 mph - N/A   Scattered Clouds
6:55 PM 75.2 °F 68.0 °F 78% 29.77 in 10.0 mi SSE 9.2 mph - N/A   Mostly Cloudy
7:15 PM 75.2 °F 68.0 °F 78% 29.77 in 10.0 mi SSE 5.8 mph - N/A   Mostly Cloudy
7:35 PM 75.2 °F 68.0 °F 78% 29.77 in 10.0 mi SSE 5.8 mph - N/A   Mostly Cloudy
7:55 PM 75.2 °F 68.0 °F 78% 29.77 in 10.0 mi SSE 5.8 mph - N/A   Overcast
8:35 PM 73.4 °F 66.2 °F 78% 29.78 in 10.0 mi SE 4.6 mph - N/A   Mostly Cloudy
8:55 PM 73.4 °F 66.2 °F 78% 29.78 in 10.0 mi SE 4.6 mph - N/A   Scattered Clouds
9:15 PM 73.4 °F 66.2 °F 78% 29.77 in 10.0 mi SE 4.6 mph - N/A   Scattered Clouds
9:35 PM 73.4 °F 66.2 °F 78% 29.78 in 10.0 mi SE 4.6 mph - N/A   Scattered Clouds
9:55 PM 73.4 °F 66.2 °F 78% 29.77 in 10.0 mi SE 3.5 mph - N/A   Scattered Clouds
10:15 PM 71.6 °F 66.2 °F 83% 29.77 in 10.0 mi SE 3.5 mph - N/A   Scattered Clouds
10:35 PM 71.6 °F 66.2 °F 83% 29.78 in 10.0 mi Calm Calm - N/A   Clear
10:55 PM 69.8 °F 66.2 °F 88% 29.79 in 10.0 mi Calm Calm - N/A   Scattered Clouds
11:15 PM 69.8 °F 64.4 °F 83% 29.80 in 7.0 mi Calm Calm - N/A   Mostly Cloudy
11:35 PM 69.8 °F 66.2 °F 88% 29.79 in 7.0 mi South 5.8 mph - N/A   Overcast
11:55 PM 73.4 °F 68.0 °F 83% 29.79 in 10.0 mi South 8.1 mph - N/A   Overcast